Year,Month,Day,Hour,Minute,Value (Times are PST for windgust in km/hr)
2014,02,13,00,00,11.30
2014,02,13,00,01,11.30
2014,02,13,00,02,11.30
2014,02,13,00,03,11.30
2014,02,13,00,04,9.60
2014,02,13,00,05,8.10
2014,02,13,00,06,8.10
2014,02,13,00,07,6.40
2014,02,13,00,08,6.40
2014,02,13,00,09,6.40
2014,02,13,00,10,8.10
2014,02,13,00,11,8.10
2014,02,13,00,12,8.10
2014,02,13,00,13,8.10
2014,02,13,00,14,8.10
2014,02,13,00,15,8.10
2014,02,13,00,16,9.60
2014,02,13,00,17,9.60
2014,02,13,00,18,6.40
2014,02,13,00,19,4.80
2014,02,13,00,20,6.40
2014,02,13,00,21,6.40
2014,02,13,00,22,4.80
2014,02,13,00,23,4.80
2014,02,13,00,24,4.80
2014,02,13,00,25,11.30
2014,02,13,00,26,14.50
2014,02,13,00,27,12.90
2014,02,13,00,28,11.30
2014,02,13,00,29,11.30
2014,02,13,00,30,11.30
2014,02,13,00,31,11.30
2014,02,13,00,32,11.30
2014,02,13,00,33,11.30
2014,02,13,00,34,11.30
2014,02,13,00,35,11.30
2014,02,13,00,36,11.30
2014,02,13,00,37,11.30
2014,02,13,00,38,12.90
2014,02,13,00,39,11.30
2014,02,13,00,40,11.30
2014,02,13,00,41,9.60
2014,02,13,00,42,11.30
2014,02,13,00,43,11.30
2014,02,13,00,44,11.30
2014,02,13,00,45,12.90
2014,02,13,00,46,11.30
2014,02,13,00,47,16.10
2014,02,13,00,48,14.50
2014,02,13,00,49,12.90
2014,02,13,00,50,14.50
2014,02,13,00,51,11.30
2014,02,13,00,52,16.10
2014,02,13,00,53,16.10
2014,02,13,00,54,12.90
2014,02,13,00,55,19.30
2014,02,13,00,56,17.70
2014,02,13,00,57,19.30
2014,02,13,00,58,17.70
2014,02,13,00,59,17.70
2014,02,13,01,00,19.30
2014,02,13,01,01,17.70
2014,02,13,01,02,17.70
2014,02,13,01,03,17.70
2014,02,13,01,04,16.10
2014,02,13,01,05,17.70
2014,02,13,01,06,17.70
2014,02,13,01,07,19.30
2014,02,13,01,08,17.70
2014,02,13,01,09,16.10
2014,02,13,01,10,22.50
2014,02,13,01,11,25.70
2014,02,13,01,12,33.80
2014,02,13,01,13,33.80
2014,02,13,01,14,32.20
2014,02,13,01,15,33.80
2014,02,13,01,16,33.80
2014,02,13,01,17,38.60
2014,02,13,01,18,40.20
2014,02,13,01,19,37.00
2014,02,13,01,20,38.60
2014,02,13,01,21,40.20
2014,02,13,01,22,35.40
2014,02,13,01,23,37.00
2014,02,13,01,24,35.40
2014,02,13,01,25,35.40
2014,02,13,01,26,38.60
2014,02,13,01,27,41.80
2014,02,13,01,28,43.50
2014,02,13,01,29,41.80
2014,02,13,01,30,41.80
2014,02,13,01,31,41.80
2014,02,13,01,32,37.00
2014,02,13,01,33,38.60
2014,02,13,01,34,38.60
2014,02,13,01,35,37.00
2014,02,13,01,36,35.40
2014,02,13,01,37,35.40
2014,02,13,01,38,37.00
2014,02,13,01,39,37.00
2014,02,13,01,40,37.00
2014,02,13,01,41,35.40
2014,02,13,01,42,40.20
2014,02,13,01,43,40.20
2014,02,13,01,44,40.20
2014,02,13,01,45,40.20
2014,02,13,01,46,40.20
2014,02,13,01,47,41.80
2014,02,13,01,48,45.10
2014,02,13,01,49,41.80
2014,02,13,01,50,40.20
2014,02,13,01,51,37.00
2014,02,13,01,52,35.40
2014,02,13,01,53,41.80
2014,02,13,01,54,43.50
2014,02,13,01,55,40.20
2014,02,13,01,56,40.20
2014,02,13,01,57,38.60
2014,02,13,01,58,41.80
2014,02,13,01,59,43.50
2014,02,13,02,00,43.50
2014,02,13,02,01,48.30
2014,02,13,02,02,46.70
2014,02,13,02,03,45.10
2014,02,13,02,04,45.10
2014,02,13,02,05,46.70
2014,02,13,02,06,46.70
2014,02,13,02,07,46.70
2014,02,13,02,08,46.70
2014,02,13,02,09,48.30
2014,02,13,02,10,48.30
2014,02,13,02,11,49.90
2014,02,13,02,12,49.90
2014,02,13,02,13,51.50
2014,02,13,02,14,49.90
2014,02,13,02,15,49.90
2014,02,13,02,16,49.90
2014,02,13,02,17,48.30
2014,02,13,02,18,51.50
2014,02,13,02,19,51.50
2014,02,13,02,20,54.70
2014,02,13,02,21,51.50
2014,02,13,02,22,57.90
2014,02,13,02,23,54.70
2014,02,13,02,24,53.10
2014,02,13,02,25,54.70
2014,02,13,02,26,51.50
2014,02,13,02,27,49.90
2014,02,13,02,28,51.50
2014,02,13,02,29,49.90
2014,02,13,02,30,56.30
2014,02,13,02,31,54.70
2014,02,13,02,32,59.50
2014,02,13,02,33,54.70
2014,02,13,02,34,54.70
2014,02,13,02,35,51.50
2014,02,13,02,36,51.50
2014,02,13,02,37,48.30
2014,02,13,02,38,51.50
2014,02,13,02,39,51.50
2014,02,13,02,40,49.90
2014,02,13,02,41,49.90
2014,02,13,02,42,48.30
2014,02,13,02,43,54.70
2014,02,13,02,44,46.70
2014,02,13,02,45,53.10
2014,02,13,02,46,57.90
2014,02,13,02,47,57.90
2014,02,13,02,48,57.90
2014,02,13,02,49,61.20
2014,02,13,02,50,59.50
2014,02,13,02,51,61.20
2014,02,13,02,52,62.70
2014,02,13,02,53,64.40
2014,02,13,02,54,66.00
2014,02,13,02,55,64.40
2014,02,13,02,56,66.00
2014,02,13,02,57,64.40
2014,02,13,02,58,69.20
2014,02,13,02,59,67.60
2014,02,13,03,00,61.20
2014,02,13,03,01,66.00
2014,02,13,03,02,64.40
2014,02,13,03,03,62.70
2014,02,13,03,06,67.60
2014,02,13,03,07,62.70
2014,02,13,03,08,61.20
2014,02,13,03,09,62.70
2014,02,13,03,10,61.20
2014,02,13,03,11,64.40
2014,02,13,03,12,59.50
2014,02,13,03,13,64.40
2014,02,13,03,14,61.20
2014,02,13,03,15,61.20
2014,02,13,03,16,61.20
2014,02,13,03,17,61.20
2014,02,13,03,18,57.90
2014,02,13,03,19,59.50
2014,02,13,03,20,59.50
2014,02,13,03,21,62.70
2014,02,13,03,22,64.40
2014,02,13,03,23,61.20
2014,02,13,03,24,61.20
2014,02,13,03,25,61.20
2014,02,13,03,26,64.40
2014,02,13,03,27,61.20
2014,02,13,03,28,59.50
2014,02,13,03,29,57.90
2014,02,13,03,30,56.30
2014,02,13,03,31,57.90
2014,02,13,03,32,59.50
2014,02,13,03,33,62.70
2014,02,13,03,34,59.50
2014,02,13,03,35,56.30
2014,02,13,03,36,62.70
2014,02,13,03,37,61.20
2014,02,13,03,38,62.70
2014,02,13,03,39,57.90
2014,02,13,03,40,64.40
2014,02,13,03,41,59.50
2014,02,13,03,42,66.00
2014,02,13,03,43,66.00
2014,02,13,03,44,66.00
2014,02,13,03,45,67.60
2014,02,13,03,46,69.20
2014,02,13,03,47,74.00
2014,02,13,03,48,64.40
2014,02,13,03,49,62.70
2014,02,13,03,50,67.60
2014,02,13,03,51,67.60
2014,02,13,03,52,62.70
2014,02,13,03,53,64.40
2014,02,13,03,54,61.20
2014,02,13,03,55,57.90
2014,02,13,03,56,56.30
2014,02,13,03,57,54.70
2014,02,13,03,58,57.90
2014,02,13,03,59,57.90
2014,02,13,04,00,54.70
2014,02,13,04,01,56.30
2014,02,13,04,02,56.30
2014,02,13,04,03,57.90
2014,02,13,04,04,59.50
2014,02,13,04,05,59.50
2014,02,13,04,06,62.70
2014,02,13,04,07,62.70
2014,02,13,04,08,59.50
2014,02,13,04,09,59.50
2014,02,13,04,10,61.20
2014,02,13,04,11,61.20
2014,02,13,04,12,59.50
2014,02,13,04,13,59.50
2014,02,13,04,14,53.10
2014,02,13,04,15,59.50
2014,02,13,04,16,62.70
2014,02,13,04,17,59.50
2014,02,13,04,18,57.90
2014,02,13,04,19,53.10
2014,02,13,04,20,59.50
2014,02,13,04,21,54.70
2014,02,13,04,22,67.60
2014,02,13,04,23,62.70
2014,02,13,04,24,61.20
2014,02,13,04,25,66.00
2014,02,13,04,26,66.00
2014,02,13,04,27,66.00
2014,02,13,04,28,57.90
2014,02,13,04,29,70.80
2014,02,13,04,30,70.80
2014,02,13,04,31,77.30
2014,02,13,04,32,77.30
2014,02,13,04,33,77.30
2014,02,13,04,34,77.30
2014,02,13,04,35,72.40
2014,02,13,04,36,77.30
2014,02,13,04,37,78.80
2014,02,13,04,38,78.80
2014,02,13,04,39,77.30
2014,02,13,04,40,75.60
2014,02,13,04,41,69.20
2014,02,13,04,42,70.80
2014,02,13,04,43,72.40
2014,02,13,04,44,69.20
2014,02,13,04,45,72.40
2014,02,13,04,46,72.40
2014,02,13,04,47,74.00
2014,02,13,04,48,69.20
2014,02,13,04,49,66.00
2014,02,13,04,50,69.20
2014,02,13,04,51,66.00
2014,02,13,04,52,59.50
2014,02,13,04,53,62.70
2014,02,13,04,54,64.40
2014,02,13,04,55,67.60
2014,02,13,04,56,72.40
2014,02,13,04,57,69.20
2014,02,13,04,58,67.60
2014,02,13,04,59,70.80
2014,02,13,05,00,72.40
2014,02,13,05,01,69.20
2014,02,13,05,02,67.60
2014,02,13,05,03,77.30
2014,02,13,05,04,77.30
2014,02,13,05,05,70.80
2014,02,13,05,06,64.40
2014,02,13,05,07,69.20
2014,02,13,05,08,74.00
2014,02,13,05,09,67.60
2014,02,13,05,10,69.20
2014,02,13,05,11,78.80
2014,02,13,05,12,69.20
2014,02,13,05,13,72.40
2014,02,13,05,14,69.20
2014,02,13,05,15,72.40
2014,02,13,05,16,69.20
2014,02,13,05,17,77.30
2014,02,13,05,18,74.00
2014,02,13,05,19,74.00
2014,02,13,05,20,74.00
2014,02,13,05,21,74.00
2014,02,13,05,22,78.80
2014,02,13,05,23,70.80
2014,02,13,05,24,72.40
2014,02,13,05,25,72.40
2014,02,13,05,26,69.20
2014,02,13,05,27,69.20
2014,02,13,05,28,67.60
2014,02,13,05,29,67.60
2014,02,13,05,30,70.80
2014,02,13,05,31,69.20
2014,02,13,05,32,74.00
2014,02,13,05,33,66.00
2014,02,13,05,34,64.40
2014,02,13,05,35,67.60
2014,02,13,05,36,67.60
2014,02,13,05,37,59.50
2014,02,13,05,38,61.20
2014,02,13,05,39,61.20
2014,02,13,05,40,74.00
2014,02,13,05,41,70.80
2014,02,13,05,42,77.30
2014,02,13,05,43,75.60
2014,02,13,05,44,72.40
2014,02,13,05,45,74.00
2014,02,13,05,46,66.00
2014,02,13,05,47,64.40
2014,02,13,05,48,67.60
2014,02,13,05,49,66.00
2014,02,13,05,50,82.10
2014,02,13,05,51,78.80
2014,02,13,05,52,64.40
2014,02,13,05,53,62.70
2014,02,13,05,54,59.50
2014,02,13,05,55,70.80
2014,02,13,05,56,57.90
2014,02,13,05,57,62.70
2014,02,13,05,58,59.50
2014,02,13,05,59,54.70
2014,02,13,06,00,56.30
2014,02,13,06,01,54.70
2014,02,13,06,02,56.30
2014,02,13,06,03,72.40
2014,02,13,06,04,83.70
2014,02,13,06,05,85.30
2014,02,13,06,06,86.90
2014,02,13,06,07,86.90
2014,02,13,06,08,80.50
2014,02,13,06,09,83.70
2014,02,13,06,10,78.80
2014,02,13,06,11,88.50
2014,02,13,06,12,86.90
2014,02,13,06,13,78.80
2014,02,13,06,14,75.60
2014,02,13,06,15,74.00
2014,02,13,06,16,69.20
2014,02,13,06,17,67.60
2014,02,13,06,18,66.00
2014,02,13,06,19,72.40
2014,02,13,06,20,69.20
2014,02,13,06,21,59.50
2014,02,13,06,22,59.50
2014,02,13,06,23,61.20
2014,02,13,06,24,67.60
2014,02,13,06,25,59.50
2014,02,13,06,26,61.20
2014,02,13,06,27,74.00
2014,02,13,06,28,66.00
2014,02,13,06,29,67.60
2014,02,13,06,30,67.60
2014,02,13,06,31,67.60
2014,02,13,06,32,72.40
2014,02,13,06,33,70.80
2014,02,13,06,34,66.00
2014,02,13,06,35,69.20
2014,02,13,06,36,67.60
2014,02,13,06,37,62.70
2014,02,13,06,38,62.70
2014,02,13,06,39,61.20
2014,02,13,06,40,69.20
2014,02,13,06,41,67.60
2014,02,13,06,42,69.20
2014,02,13,06,43,67.60
2014,02,13,06,44,72.40
2014,02,13,06,45,69.20
2014,02,13,06,46,72.40
2014,02,13,06,47,74.00
2014,02,13,06,48,75.60
2014,02,13,06,49,75.60
2014,02,13,06,50,72.40
2014,02,13,06,51,72.40
2014,02,13,06,52,67.60
2014,02,13,06,53,72.40
2014,02,13,06,54,74.00
2014,02,13,06,55,72.40
2014,02,13,06,56,80.50
2014,02,13,06,57,85.30
2014,02,13,06,58,80.50
2014,02,13,06,59,78.80
2014,02,13,07,00,77.30
2014,02,13,07,01,75.60
2014,02,13,07,02,74.00
2014,02,13,07,03,66.00
2014,02,13,07,04,62.70
2014,02,13,07,05,62.70
2014,02,13,07,06,57.90
2014,02,13,07,07,51.50
2014,02,13,07,08,53.10
2014,02,13,07,09,49.90
2014,02,13,07,10,56.30
2014,02,13,07,11,57.90
2014,02,13,07,12,56.30
2014,02,13,07,13,49.90
2014,02,13,07,14,43.50
2014,02,13,07,15,43.50
2014,02,13,07,16,45.10
2014,02,13,07,17,46.70
2014,02,13,07,18,46.70
2014,02,13,07,19,46.70
2014,02,13,07,20,45.10
2014,02,13,07,21,43.50
2014,02,13,07,22,45.10
2014,02,13,07,23,61.20
2014,02,13,07,24,59.50
2014,02,13,07,25,48.30
2014,02,13,07,26,53.10
2014,02,13,07,27,51.50
2014,02,13,07,28,54.70
2014,02,13,07,29,56.30
2014,02,13,07,30,62.70
2014,02,13,07,31,70.80
2014,02,13,07,32,66.00
2014,02,13,07,33,66.00
2014,02,13,07,34,69.20
2014,02,13,07,35,72.40
2014,02,13,07,36,64.40
2014,02,13,07,37,67.60
2014,02,13,07,38,67.60
2014,02,13,07,39,66.00
2014,02,13,07,40,67.60
2014,02,13,07,41,69.20
2014,02,13,07,42,72.40
2014,02,13,07,43,69.20
2014,02,13,07,44,59.50
2014,02,13,07,45,62.70
2014,02,13,07,46,66.00
2014,02,13,07,47,66.00
2014,02,13,07,48,62.70
2014,02,13,07,49,64.40
2014,02,13,07,50,57.90
2014,02,13,07,51,62.70
2014,02,13,07,52,59.50
2014,02,13,07,53,66.00
2014,02,13,07,54,62.70
2014,02,13,07,55,61.20
2014,02,13,07,56,57.90
2014,02,13,07,57,61.20
2014,02,13,07,58,62.70
2014,02,13,07,59,57.90
2014,02,13,08,00,61.20
2014,02,13,08,01,64.40
2014,02,13,08,02,67.60
2014,02,13,08,03,69.20
2014,02,13,08,04,67.60
2014,02,13,08,05,64.40
2014,02,13,08,06,62.70
2014,02,13,08,07,62.70
2014,02,13,08,08,66.00
2014,02,13,08,09,67.60
2014,02,13,08,10,67.60
2014,02,13,08,11,67.60
2014,02,13,08,12,67.60
2014,02,13,08,13,64.40
2014,02,13,08,14,64.40
2014,02,13,08,15,67.60
2014,02,13,08,16,67.60
2014,02,13,08,17,66.00
2014,02,13,08,18,67.60
2014,02,13,08,19,64.40
2014,02,13,08,20,67.60
2014,02,13,08,21,70.80
2014,02,13,08,22,66.00
2014,02,13,08,23,64.40
2014,02,13,08,24,66.00
2014,02,13,08,25,67.60
2014,02,13,08,26,70.80
2014,02,13,08,27,67.60
2014,02,13,08,28,66.00
2014,02,13,08,29,64.40
2014,02,13,08,30,64.40
2014,02,13,08,31,64.40
2014,02,13,08,32,62.70
2014,02,13,08,33,66.00
2014,02,13,08,34,64.40
2014,02,13,08,35,53.10
2014,02,13,08,36,61.20
2014,02,13,08,37,62.70
2014,02,13,08,38,61.20
2014,02,13,08,39,61.20
2014,02,13,08,40,59.50
2014,02,13,08,41,56.30
2014,02,13,08,42,57.90
2014,02,13,08,43,57.90
2014,02,13,08,44,54.70
2014,02,13,08,45,54.70
2014,02,13,08,46,54.70
2014,02,13,08,47,61.20
2014,02,13,08,48,62.70
2014,02,13,08,49,62.70
2014,02,13,08,50,61.20
2014,02,13,08,51,64.40
2014,02,13,08,52,62.70
2014,02,13,08,53,64.40
2014,02,13,08,54,61.20
2014,02,13,08,55,59.50
2014,02,13,08,56,59.50
2014,02,13,08,57,62.70
2014,02,13,08,58,57.90
2014,02,13,08,59,57.90
2014,02,13,09,00,56.30
2014,02,13,09,01,59.50
2014,02,13,09,02,62.70
2014,02,13,09,03,64.40
2014,02,13,09,04,66.00
2014,02,13,09,05,64.40
2014,02,13,09,06,64.40
2014,02,13,09,07,69.20
2014,02,13,09,08,64.40
2014,02,13,09,09,62.70
2014,02,13,09,10,70.80
2014,02,13,09,11,62.70
2014,02,13,09,12,66.00
2014,02,13,09,13,62.70
2014,02,13,09,14,66.00
2014,02,13,09,15,64.40
2014,02,13,09,16,62.70
2014,02,13,09,17,67.60
2014,02,13,09,18,62.70
2014,02,13,09,19,66.00
2014,02,13,09,20,66.00
2014,02,13,09,21,67.60
2014,02,13,09,22,67.60
2014,02,13,09,23,61.20
2014,02,13,09,24,62.70
2014,02,13,09,25,66.00
2014,02,13,09,26,62.70
2014,02,13,09,27,64.40
2014,02,13,09,28,66.00
2014,02,13,09,29,67.60
2014,02,13,09,30,69.20
2014,02,13,09,31,66.00
2014,02,13,09,32,69.20
2014,02,13,09,33,67.60
2014,02,13,09,34,66.00
2014,02,13,09,35,61.20
2014,02,13,09,36,57.90
2014,02,13,09,37,64.40
2014,02,13,09,38,64.40
2014,02,13,09,39,62.70
2014,02,13,09,40,66.00
2014,02,13,09,41,61.20
2014,02,13,09,42,62.70
2014,02,13,09,43,69.20
2014,02,13,09,44,67.60
2014,02,13,09,45,70.80
2014,02,13,09,46,72.40
2014,02,13,09,47,75.60
2014,02,13,09,48,82.10
2014,02,13,09,49,80.50
2014,02,13,09,50,80.50
2014,02,13,09,51,83.70
2014,02,13,09,52,75.60
2014,02,13,09,53,77.30
2014,02,13,09,54,75.60
2014,02,13,09,55,72.40
2014,02,13,09,56,75.60
2014,02,13,09,57,70.80
2014,02,13,09,58,69.20
2014,02,13,09,59,70.80
2014,02,13,10,00,70.80
2014,02,13,10,01,67.60
2014,02,13,10,02,69.20
2014,02,13,10,03,64.40
2014,02,13,10,04,61.20
2014,02,13,10,05,69.20
2014,02,13,10,06,67.60
2014,02,13,10,07,62.70
2014,02,13,10,08,61.20
2014,02,13,10,09,66.00
2014,02,13,10,10,62.70
2014,02,13,10,11,62.70
2014,02,13,10,12,66.00
2014,02,13,10,13,59.50
2014,02,13,10,14,59.50
2014,02,13,10,15,59.50
2014,02,13,10,16,54.70
2014,02,13,10,17,57.90
2014,02,13,10,18,59.50
2014,02,13,10,19,59.50
2014,02,13,10,20,57.90
2014,02,13,10,21,57.90
2014,02,13,10,22,61.20
2014,02,13,10,23,64.40
2014,02,13,10,24,64.40
2014,02,13,10,25,62.70
2014,02,13,10,26,62.70
2014,02,13,10,27,62.70
2014,02,13,10,28,64.40
2014,02,13,10,29,61.20
2014,02,13,10,30,56.30
2014,02,13,10,31,62.70
2014,02,13,10,32,59.50
2014,02,13,10,33,66.00
2014,02,13,10,34,62.70
2014,02,13,10,35,59.50
2014,02,13,10,36,67.60
2014,02,13,10,37,70.80
2014,02,13,10,38,64.40
2014,02,13,10,39,67.60
2014,02,13,10,40,69.20
2014,02,13,10,41,67.60
2014,02,13,10,42,75.60
2014,02,13,10,43,69.20
2014,02,13,10,44,66.00
2014,02,13,10,45,70.80
2014,02,13,10,46,69.20
2014,02,13,10,47,69.20
2014,02,13,10,48,67.60
2014,02,13,10,49,70.80
2014,02,13,10,50,70.80
2014,02,13,10,51,70.80
2014,02,13,10,52,70.80
2014,02,13,10,53,69.20
2014,02,13,10,54,64.40
2014,02,13,10,55,59.50
2014,02,13,10,56,54.70
2014,02,13,10,57,54.70
2014,02,13,10,58,56.30
2014,02,13,10,59,49.90
2014,02,13,11,00,49.90
2014,02,13,11,01,49.90
2014,02,13,11,02,56.30
2014,02,13,11,03,54.70
2014,02,13,11,04,53.10
2014,02,13,11,05,54.70
2014,02,13,11,06,53.10
2014,02,13,11,07,56.30
2014,02,13,11,08,56.30
2014,02,13,11,09,56.30
2014,02,13,11,10,51.50
2014,02,13,11,11,53.10
2014,02,13,11,12,51.50
2014,02,13,11,13,49.90
2014,02,13,11,14,51.50
2014,02,13,11,15,51.50
2014,02,13,11,16,49.90
2014,02,13,11,17,46.70
2014,02,13,11,18,49.90
2014,02,13,11,19,54.70
2014,02,13,11,20,49.90
2014,02,13,11,21,53.10
2014,02,13,11,22,53.10
2014,02,13,11,23,53.10
2014,02,13,11,24,53.10
2014,02,13,11,25,51.50
2014,02,13,11,26,46.70
2014,02,13,11,27,49.90
2014,02,13,11,28,51.50
2014,02,13,11,29,49.90
2014,02,13,11,30,49.90
2014,02,13,11,31,49.90
2014,02,13,11,32,46.70
2014,02,13,11,33,43.50
2014,02,13,11,34,40.20
2014,02,13,11,35,40.20
2014,02,13,11,36,45.10
2014,02,13,11,37,40.20
2014,02,13,11,38,40.20
2014,02,13,11,39,43.50
2014,02,13,11,40,41.80
2014,02,13,11,41,48.30
2014,02,13,11,42,45.10
2014,02,13,11,43,45.10
2014,02,13,11,44,46.70
2014,02,13,11,45,45.10
2014,02,13,11,46,49.90
2014,02,13,11,47,61.20
2014,02,13,11,48,66.00
2014,02,13,11,49,69.20
2014,02,13,11,50,70.80
2014,02,13,11,51,62.70
2014,02,13,11,52,66.00
2014,02,13,11,53,72.40
2014,02,13,11,54,69.20
2014,02,13,11,55,66.00
2014,02,13,11,56,64.40
2014,02,13,11,57,59.50
2014,02,13,11,58,59.50
2014,02,13,11,59,57.90
2014,02,13,12,00,57.90
2014,02,13,12,01,54.70
2014,02,13,12,02,56.30
2014,02,13,12,03,54.70
2014,02,13,12,04,57.90
2014,02,13,12,05,57.90
2014,02,13,12,06,57.90
2014,02,13,12,07,54.70
2014,02,13,12,08,59.50
2014,02,13,12,09,59.50
2014,02,13,12,10,57.90
2014,02,13,12,11,51.50
2014,02,13,12,12,48.30
2014,02,13,12,13,46.70
2014,02,13,12,14,40.20
2014,02,13,12,15,40.20
2014,02,13,12,16,37.00
2014,02,13,12,17,38.60
2014,02,13,12,18,33.80
2014,02,13,12,19,30.60
2014,02,13,12,20,32.20
2014,02,13,12,21,27.40
2014,02,13,12,22,25.70
2014,02,13,12,23,25.70
2014,02,13,12,24,22.50
2014,02,13,12,25,24.20
2014,02,13,12,26,24.20
2014,02,13,12,27,22.50
2014,02,13,12,28,25.70
2014,02,13,12,29,29.00
2014,02,13,12,30,24.20
2014,02,13,12,31,24.20
2014,02,13,12,32,22.50
2014,02,13,12,33,20.90
2014,02,13,12,34,22.50
2014,02,13,12,35,19.30
2014,02,13,12,36,19.30
2014,02,13,12,37,19.30
2014,02,13,12,38,19.30
2014,02,13,12,39,17.70
2014,02,13,12,40,17.70
2014,02,13,12,41,19.30
2014,02,13,12,42,17.70
2014,02,13,12,43,19.30
2014,02,13,12,44,19.30
2014,02,13,12,45,19.30
2014,02,13,12,46,20.90
2014,02,13,12,47,19.30
2014,02,13,12,48,19.30
2014,02,13,12,49,19.30
2014,02,13,12,50,19.30
2014,02,13,12,51,19.30
2014,02,13,12,52,19.30
2014,02,13,12,53,19.30
2014,02,13,12,54,19.30
2014,02,13,12,55,22.50
2014,02,13,12,56,20.90
2014,02,13,12,57,20.90
2014,02,13,12,58,19.30
2014,02,13,12,59,20.90
2014,02,13,13,00,19.30
2014,02,13,13,01,20.90
2014,02,13,13,02,22.50
2014,02,13,13,03,19.30
2014,02,13,13,04,22.50
2014,02,13,13,05,20.90
2014,02,13,13,06,20.90
2014,02,13,13,07,22.50
2014,02,13,13,08,20.90
2014,02,13,13,09,20.90
2014,02,13,13,10,20.90
2014,02,13,13,11,22.50
2014,02,13,13,12,27.40
2014,02,13,13,13,29.00
2014,02,13,13,14,27.40
2014,02,13,13,15,29.00
2014,02,13,13,16,35.40
2014,02,13,13,17,38.60
2014,02,13,13,18,43.50
2014,02,13,13,19,41.80
2014,02,13,13,20,40.20
2014,02,13,13,21,41.80
2014,02,13,13,22,43.50
2014,02,13,13,23,45.10
2014,02,13,13,24,46.70
2014,02,13,13,25,46.70
2014,02,13,13,26,48.30
2014,02,13,13,27,46.70
2014,02,13,13,28,45.10
2014,02,13,13,29,43.50
2014,02,13,13,30,45.10
2014,02,13,13,31,43.50
2014,02,13,13,32,41.80
2014,02,13,13,33,41.80
2014,02,13,13,34,41.80
2014,02,13,13,35,41.80
2014,02,13,13,36,41.80
2014,02,13,13,37,41.80
2014,02,13,13,38,41.80
2014,02,13,13,39,41.80
2014,02,13,13,40,41.80
2014,02,13,13,41,41.80
2014,02,13,13,42,40.20
2014,02,13,13,43,40.20
2014,02,13,13,44,40.20
2014,02,13,13,45,38.60
2014,02,13,13,46,37.00
2014,02,13,13,47,37.00
2014,02,13,13,48,38.60
2014,02,13,13,49,38.60
2014,02,13,13,50,38.60
2014,02,13,13,51,37.00
2014,02,13,13,52,37.00
2014,02,13,13,53,35.40
2014,02,13,13,54,33.80
2014,02,13,13,55,33.80
2014,02,13,13,56,33.80
2014,02,13,13,57,32.20
2014,02,13,13,58,32.20
2014,02,13,13,59,33.80
2014,02,13,14,00,30.60
2014,02,13,14,01,37.00
2014,02,13,14,02,38.60
2014,02,13,14,03,37.00
2014,02,13,14,04,37.00
2014,02,13,14,05,33.80
2014,02,13,14,06,37.00
2014,02,13,14,07,33.80
2014,02,13,14,08,32.20
2014,02,13,14,09,32.20
2014,02,13,14,10,33.80
2014,02,13,14,11,32.20
2014,02,13,14,12,32.20
2014,02,13,14,13,30.60
2014,02,13,14,14,30.60
2014,02,13,14,15,30.60
2014,02,13,14,16,32.20
2014,02,13,14,17,32.20
2014,02,13,14,18,32.20
2014,02,13,14,19,33.80
2014,02,13,14,20,32.20
2014,02,13,14,21,32.20
2014,02,13,14,22,33.80
2014,02,13,14,23,33.80
2014,02,13,14,24,32.20
2014,02,13,14,25,32.20
2014,02,13,14,26,33.80
2014,02,13,14,27,33.80
2014,02,13,14,28,32.20
2014,02,13,14,29,32.20
2014,02,13,14,30,32.20
2014,02,13,14,31,30.60
2014,02,13,14,32,30.60
2014,02,13,14,33,30.60
2014,02,13,14,34,32.20
2014,02,13,14,35,33.80
2014,02,13,14,36,32.20
2014,02,13,14,37,32.20
2014,02,13,14,38,32.20
2014,02,13,14,39,32.20
2014,02,13,14,40,32.20
2014,02,13,14,41,32.20
2014,02,13,14,42,30.60
2014,02,13,14,43,30.60
2014,02,13,14,44,30.60
2014,02,13,14,45,30.60
2014,02,13,14,46,29.00
2014,02,13,14,47,27.40
2014,02,13,14,48,27.40
2014,02,13,14,49,27.40
2014,02,13,14,50,27.40
2014,02,13,14,51,29.00
2014,02,13,14,52,30.60
2014,02,13,14,53,29.00
2014,02,13,14,54,29.00
2014,02,13,14,55,29.00
2014,02,13,14,56,32.20
2014,02,13,14,57,25.70
2014,02,13,14,58,25.70
2014,02,13,14,59,22.50
2014,02,13,15,00,24.20
2014,02,13,15,01,25.70
2014,02,13,15,02,25.70
2014,02,13,15,03,25.70
2014,02,13,15,04,27.40
2014,02,13,15,05,25.70
2014,02,13,15,06,24.20
2014,02,13,15,07,24.20
2014,02,13,15,08,24.20
2014,02,13,15,09,22.50
2014,02,13,15,10,22.50
2014,02,13,15,11,24.20
2014,02,13,15,12,22.50
2014,02,13,15,13,24.20
2014,02,13,15,14,22.50
2014,02,13,15,15,24.20
2014,02,13,15,16,25.70
2014,02,13,15,17,25.70
2014,02,13,15,18,27.40
2014,02,13,15,19,27.40
2014,02,13,15,20,27.40
2014,02,13,15,21,25.70
2014,02,13,15,22,27.40
2014,02,13,15,23,27.40
2014,02,13,15,24,25.70
2014,02,13,15,25,25.70
2014,02,13,15,26,27.40
2014,02,13,15,27,25.70
2014,02,13,15,28,25.70
2014,02,13,15,29,24.20
2014,02,13,15,30,24.20
2014,02,13,15,31,22.50
2014,02,13,15,32,20.90
2014,02,13,15,33,19.30
2014,02,13,15,34,16.10
2014,02,13,15,35,16.10
2014,02,13,15,36,14.50
2014,02,13,15,37,14.50
2014,02,13,15,38,17.70
2014,02,13,15,39,22.50
2014,02,13,15,40,20.90
2014,02,13,15,41,24.20
2014,02,13,15,42,27.40
2014,02,13,15,43,24.20
2014,02,13,15,44,29.00
2014,02,13,15,45,24.20
2014,02,13,15,46,27.40
2014,02,13,15,47,27.40
2014,02,13,15,48,33.80
2014,02,13,15,49,29.00
2014,02,13,15,50,32.20
2014,02,13,15,51,29.00
2014,02,13,15,52,30.60
2014,02,13,15,53,33.80
2014,02,13,15,54,30.60
2014,02,13,15,55,25.70
2014,02,13,15,56,20.90
2014,02,13,15,57,17.70
2014,02,13,15,58,24.20
2014,02,13,15,59,22.50
2014,02,13,16,00,25.70
2014,02,13,16,01,25.70
2014,02,13,16,02,29.00
2014,02,13,16,03,24.20
2014,02,13,16,04,20.90
2014,02,13,16,05,25.70
2014,02,13,16,06,25.70
2014,02,13,16,07,20.90
2014,02,13,16,08,22.50
2014,02,13,16,09,19.30
2014,02,13,16,10,14.50
2014,02,13,16,11,19.30
2014,02,13,16,12,22.50
2014,02,13,16,13,22.50
2014,02,13,16,14,22.50
2014,02,13,16,15,24.20
2014,02,13,16,16,25.70
2014,02,13,16,17,27.40
2014,02,13,16,18,25.70
2014,02,13,16,19,24.20
2014,02,13,16,20,22.50
2014,02,13,16,21,16.10
2014,02,13,16,22,19.30
2014,02,13,16,23,22.50
2014,02,13,16,24,20.90
2014,02,13,16,25,20.90
2014,02,13,16,26,22.50
2014,02,13,16,27,20.90
2014,02,13,16,28,19.30
2014,02,13,16,29,19.30
2014,02,13,16,30,19.30
2014,02,13,16,31,20.90
2014,02,13,16,32,20.90
2014,02,13,16,33,20.90
2014,02,13,16,34,22.50
2014,02,13,16,35,22.50
2014,02,13,16,36,22.50
2014,02,13,16,37,22.50
2014,02,13,16,38,20.90
2014,02,13,16,39,20.90
2014,02,13,16,40,20.90
2014,02,13,16,41,19.30
2014,02,13,16,42,17.70
2014,02,13,16,43,16.10
2014,02,13,16,44,14.50
2014,02,13,16,45,14.50
2014,02,13,16,46,14.50
2014,02,13,16,47,14.50
2014,02,13,16,48,14.50
2014,02,13,16,49,14.50
2014,02,13,16,50,14.50
2014,02,13,16,51,14.50
2014,02,13,16,52,9.60
2014,02,13,16,53,9.60
2014,02,13,16,54,8.10
2014,02,13,16,55,9.60
2014,02,13,16,56,12.90
2014,02,13,16,57,11.30
2014,02,13,16,58,9.60
2014,02,13,16,59,8.10
2014,02,13,17,00,8.10
2014,02,13,17,01,8.10
2014,02,13,17,02,6.40
2014,02,13,17,03,4.80
2014,02,13,17,04,6.40
2014,02,13,17,05,6.40
2014,02,13,17,06,8.10
2014,02,13,17,07,11.30
2014,02,13,17,08,11.30
2014,02,13,17,09,8.10
2014,02,13,17,10,11.30
2014,02,13,17,11,8.10
2014,02,13,17,12,8.10
2014,02,13,17,13,6.40
2014,02,13,17,14,8.10
2014,02,13,17,15,6.40
2014,02,13,17,16,8.10
2014,02,13,17,17,11.30
2014,02,13,17,18,8.10
2014,02,13,17,19,11.30
2014,02,13,17,20,8.10
2014,02,13,17,21,6.40
2014,02,13,17,22,6.40
2014,02,13,17,23,6.40